Vertical_Velocity
1 0 -0 -1 2 -0 0 -1 -1 -0 -0 -2 -0 -0 -2 -1 -2 -1 -1 -1 -0 -1 -1 -0 -0 -0 1 0 1 1 -0 -0 -1
2 2 -0 0 1 2 -0 -1 -1 -2 -1 0 -1 0 -0 -1 -0 -0 -0 -1 -1 -0 -1 -0 -1 -0 -1 -1 -1 -0 -0 -1 0
1 1 1 2 1 1 -0 -1 0 -2 -2 -0 -1 -1 0 -0 -1 -0 0 0 -1 -0 1 1 -0 -0 -0 -1 0 -1 -1 -2 -1
-0 2 2 2 1 2 1 -0 -1 0 -1 0 -0 -0 -1 0 1 -1 -1 0 -0 -1 -1 -1 -0 -1 -1 -2 -1 -1 -1 -1 -2
1 1 -1 2 2 2 3 1 -0 -1 -0 0 0 -0 -1 -1 -0 0 -1 -1 -1 -0 -1 -1 -1 0 -0 -1 -1 -1 1 1 -2
-0 1 -0 -2 1 3 3 3 3 -1 -1 -0 1 1 -0 -2 -2 -1 0 -1 -0 -0 -0 -1 -1 -3 -2 -1 -1 0 -1 -1 2
1 2 -1 -2 -1 0 1 2 4 3 -1 -1 0 -0 1 1 -2 -1 1 0 -0 0 1 -0 -1 -1 -1 -1 -0 -0 1 1 -3
3 2 2 0 -2 -2 -1 4 2 4 2 -1 -2 -0 -1 -0 0 -1 -1 1 0 -1 -1 -0 -1 -0 0 0 -2 -2 -2 -0 0
-2 -1 3 1 -1 -2 -1 -0 3 1 2 2 -0 -1 -1 -1 -0 -0 0 -0 -1 -1 -0 0 0 -1 -1 2 0 1 2 3 -1
1 -0 -1 3 3 -1 -4 -1 2 1 4 2 2 -0 -1 -1 -1 1 -0 -1 -2 -1 -1 1 -3 -1 -1 -1 -2 -0 -0 0 2
2 0 2 -1 8 5 2 0 0 5 1 1 1 3 -0 -0 1 -0 1 -1 0 -0 -1 0 1 0 -0 -0 1 1 0 -1 -0
6 4 -3 1 2 10 2 1 -5 -1 3 2 -0 2 3 0 2 0 1 1 1 2 1 1 0 1 -1 -2 -2 -1 -1 -1 -2
4 -4 4 5 3 2 7 -3 3 -4 -0 1 1 -0 1 3 -0 -0 -0 2 2 0 0 -2 -3 -4 -1 -1 1 -1 4 -2 -3
-0 1 3 9 7 3 6 23 2 -0 -2 3 3 -2 -3 1 1 1 1 1 2 2 1 2 -1 0 -1 -1 -1 -1 2 -0 -4
-4 -2 0 -1 -2 16 -6 15 -2 6 -1 5 4 0 -1 -5 1 0 0 3 2 3 2 1 -1 3 -3 -1 -2 -0 -4 -1 -2
-1 -2 -3 2 -4 -1 3 -22 7 -9 -1 -0 3 5 2 -4 -1 -0 0 1 2 3 4 0 -4 2 1 1 -2 2 -1 -2 -2
-2 -2 -3 -3 -4 -2 -3 57 10 -2 -21 -9 9 -1 1 -6 5 2 1 2 5 -2 3 0 -1 2 -0 0 -1 -0 0 -0 1
-4 -2 -3 -2 -1 -2 -3 0 11 9 -2 -10 -1 3 -11 7 6 0 2 5 5 0 -1 4 0 2 -2 -1 -2 -4 -1 -1 -4
4 2 -2 1 -3 1 -3 3 26 6 -4 -7 -3 -1 3 -4 3 1 1 -2 -2 2 -4 1 3 2 -0 1 -2 -0 1 -3 -3
3 4 -2 1 7 1 2 1 12 0 8 -15 -4 5 7 1 0 -4 5 1 -1 -4 -6 -0 -1 3 -2 0 -1 -5 -0 -2 -2
Height
3179 3180 3180 3180 3181 3181 3181 3181 3181 3181 3183 3184 3184 3185 3184 3185 3185 3185 3185 3185 3185 3185 3185 3184 3182 3181 3181 3180 3179 3178 3177 3176 3175
3178 3179 3179 3181 3181 3181 3181 3181 3181 3182 3182 3184 3184 3184 3185 3185 3185 3185 3186 3186 3186 3185 3185 3184 3183 3182 3181 3180 3179 3178 3177 3175 3174
3176 3178 3179 3180 3181 3181 3181 3180 3181 3182 3182 3183 3184 3185 3185 3185 3186 3185 3186 3185 3185 3185 3184 3184 3183 3182 3180 3179 3178 3177 3176 3175 3173
3174 3175 3177 3178 3179 3180 3180 3180 3180 3181 3181 3182 3183 3184 3185 3184 3185 3185 3184 3184 3184 3184 3183 3182 3181 3181 3180 3179 3178 3177 3175 3174 3173
3172 3173 3174 3175 3177 3178 3179 3179 3179 3179 3180 3181 3181 3182 3183 3184 3183 3183 3183 3182 3182 3182 3182 3181 3181 3180 3179 3178 3177 3176 3175 3174 3173
3172 3172 3172 3173 3174 3175 3177 3177 3178 3178 3179 3180 3180 3180 3181 3182 3182 3182 3181 3181 3180 3180 3180 3180 3179 3179 3178 3177 3176 3175 3174 3173 3171
3168 3170 3171 3171 3171 3172 3174 3175 3175 3177 3177 3177 3178 3178 3179 3180 3180 3180 3180 3179 3179 3178 3178 3178 3178 3177 3177 3176 3174 3173 3172 3171 3170
3164 3166 3168 3170 3169 3170 3170 3171 3173 3174 3174 3175 3175 3175 3176 3176 3177 3178 3177 3177 3177 3176 3176 3176 3175 3174 3174 3173 3173 3172 3171 3170 3169
3159 3161 3164 3165 3167 3167 3168 3168 3169 3170 3171 3172 3173 3173 3173 3174 3174 3174 3174 3174 3174 3173 3173 3173 3172 3172 3172 3172 3170 3169 3168 3167 3166
3154 3155 3158 3161 3162 3163 3163 3165 3166 3167 3167 3168 3170 3170 3169 3170 3171 3171 3171 3171 3171 3171 3171 3170 3169 3169 3169 3168 3167 3166 3166 3165 3164
3148 3149 3151 3154 3157 3158 3159 3159 3161 3162 3163 3164 3165 3166 3167 3166 3167 3167 3167 3167 3168 3168 3167 3167 3166 3166 3166 3166 3165 3165 3164 3162 3161
3141 3143 3145 3147 3151 3153 3151 3153 3155 3156 3157 3160 3161 3162 3163 3163 3163 3163 3163 3163 3163 3164 3163 3163 3163 3164 3163 3162 3162 3161 3161 3160 3158
3134 3135 3137 3139 3141 3145 3146 3146 3148 3150 3152 3155 3156 3157 3158 3159 3159 3158 3159 3159 3159 3159 3160 3159 3159 3160 3159 3159 3159 3158 3157 3156 3154
3127 3129 3130 3131 3133 3136 3138 3137 3139 3143 3147 3149 3150 3152 3153 3153 3154 3154 3154 3155 3155 3156 3156 3157 3156 3156 3156 3155 3154 3153 3153 3152 3151
3120 3120 3122 3124 3126 3129 3129 3130 3129 3135 3139 3143 3144 3145 3146 3147 3147 3148 3149 3150 3151 3151 3152 3152 3152 3151 3151 3150 3149 3149 3148 3148 3147
3112 3112 3113 3114 3115 3119 3121 3122 3118 3124 3131 3134 3137 3138 3139 3140 3142 3143 3143 3145 3145 3145 3146 3146 3146 3146 3146 3145 3144 3143 3143 3143 3141
3103 3103 3103 3104 3106 3108 3113 3110 3113 3115 3116 3124 3129 3129 3132 3133 3136 3137 3137 3138 3139 3140 3140 3140 3140 3140 3140 3139 3139 3138 3138 3137 3136
3092 3093 3094 3093 3095 3097 3100 3103 3104 3105 3108 3115 3121 3121 3121 3128 3129 3130 3130 3131 3132 3132 3133 3134 3134 3133 3133 3133 3133 3132 3131 3131 3130
3082 3081 3082 3081 3083 3086 3090 3095 3095 3098 3098 3104 3107 3112 3115 3118 3120 3122 3123 3124 3125 3126 3127 3127 3127 3127 3127 3127 3126 3125 3124 3124 3124
3070 3069 3068 3066 3070 3073 3079 3083 3088 3090 3091 3094 3099 3103 3105 3109 3111 3113 3116 3116 3118 3119 3119 3119 3119 3120 3120 3120 3118 3116 3117 3117 3116